Hourly Data Report for September 11, 2017

All times are specified in Local Standard Time (LST). Add 1 hour to adjust for Daylight Saving Time where and when it is observed.

SAINT JOHN A
NEW BRUNSWICK

45°18'58.000" N
65°53'24.000" W
108.80 m
8104901
71609
YSJ

Download Data

Hourly Data (September 2017)
Hourly Data Report for September 11, 2017
Temp Definition
°C
Dew Point Temp Definition
°C
Rel Hum Definition
%
Wind Dir Definition
10's deg

Wind Spd Definition
km/h
Visibility Definition
km
Stn Press Definition
kPa
Hmdx Definition


Wind Chill Definition


Weather Definition


TIME
00:00 Legend Double Dagger 12.7 8.9 78 32 5 24.1 100.76     LegendNANA
01:00 Legend Double Dagger 11.9 9.3 84 0 1 24.1 100.71     LegendNANA
02:00 Legend Double Dagger 12.4 8.7 78 29 5 24.1 100.63     Cloudy
03:00 Legend Double Dagger 12.2 9.0 81 31 8 24.1 100.59     LegendNANA
04:00 Legend Double Dagger 12.3 9.1 81 34 16 24.1 100.57     LegendNANA
05:00 Legend Double Dagger 12.0 9.5 85 35 12 24.1 100.55     Cloudy
06:00 Legend Double Dagger 9.6 8.5 92 4 8 24.1 100.57     LegendNANA
07:00 Legend Double Dagger 10.7 9.9 95 36 6 24.1 100.61     LegendNANA
08:00 Legend Double Dagger 12.2 9.8 85 35 9 24.1 100.59     Cloudy
09:00 Legend Double Dagger 14.2 10.2 77 34 11 24.1 100.56     LegendNANA
10:00 Legend Double Dagger 15.5 10.9 74 36 15 24.1 100.55     LegendNANA
11:00 Legend Double Dagger 17.0 10.9 67 36 24 24.1 100.52     Mostly Cloudy
12:00 Legend Double Dagger 18.6 11.2 62 1 30 24.1 100.47     LegendNANA
13:00 Legend Double Dagger 20.3 11.0 55 36 32 24.1 100.41     LegendNANA
14:00 Legend Double Dagger 21.2 11.1 52 35 27 24.1 100.33     Mostly Cloudy
15:00 Legend Double Dagger 21.5 11.0 51 36 23 24.1 100.28     LegendNANA
16:00 Legend Double Dagger 21.2 10.5 50 36 21 24.1 100.24     LegendNANA
17:00 Legend Double Dagger 20.4 9.8 50 36 17 24.1 100.20     Mainly Clear
18:00 Legend Double Dagger 18.6 10.0 57 36 16 24.1 100.19     LegendNANA
19:00 Legend Double Dagger 14.2 10.9 80 1 7 24.1 100.17     LegendNANA
20:00 Legend Double Dagger 12.9 10.7 87 32 7 24.1 100.16     Mainly Clear
21:00 Legend Double Dagger 14.2 10.6 79 1 12 24.1 100.15     LegendNANA
22:00 Legend Double Dagger 12.1 10.1 87 5 13 24.1 100.25     LegendNANA
23:00 Legend Double Dagger 10.5 9.7 95 4 4 24.1 100.24     Clear

Notes on Data Quality.

Legend

  • E = Estimated
  • M = Missing
  • NA = Not Available
  • ‡ = Partner data that is not subject to review by the National Climate Archives
Date modified: